GW5299 Weather Reports


time (UTC)temp
F
wind
direction
speed
knots
gust
knots
rain 1hr
in
rain 24hr
in
rain mn
in
humidity
%
barometer
mb
20260505193003 51 9 0.0 0.9 0.00 0.00 0.04 96 1008.9
20260505192057 51 354 0.0 1.7 0.00 0.00 0.04 96 1008.9
20260505191049 51 4 0.9 2.6 0.00 0.00 0.04 96 1008.9
20260505190042 51 9 0.9 2.6 0.00 0.00 0.04 96 1008.9
20260505185035 51 12 0.0 1.7 0.00 0.00 0.04 96 1008.8
20260505184027 51 1 0.9 2.6 0.00 0.00 0.04 96 1008.9
20260505183011 51 357 1.7 2.6 0.00 0.00 0.04 96 1008.8
20260505182003 51 7 0.0 0.9 0.00 0.00 0.04 96 1008.8
20260505181056 51 11 0.0 1.7 0.00 0.00 0.04 96 1008.8
20260505180048 51 357 0.9 3.5 0.00 0.00 0.04 96 1008.7
20260505175041 51 7 0.9 3.5 0.00 0.00 0.04 96 1008.8
20260505174030 51 4 2.6 6.1 0.00 0.00 0.04 96 1008.8
20260505173020 51 359 1.7 2.6 0.00 0.00 0.04 96 1008.8
20260505172007 51 347 1.7 6.1 0.00 0.00 0.04 96 1008.8
20260505170055 52 3 1.7 3.5 0.00 0.00 0.04 96 1008.9
20260505165048 52 12 1.7 3.5 0.00 0.00 0.04 96 1009.0
20260505164040 52 16 0.9 2.6 0.00 0.00 0.04 96 1009.0
20260505163032 52 19 1.7 3.5 0.00 0.00 0.04 95 1009.0
20260505162025 52 11 0.9 5.2 0.00 0.00 0.04 95 1008.9
20260505161007 52 10 2.6 3.5 0.00 0.00 0.04 95 1009.0
20260505153037 52 20 3.5 5.2 0.07 0.00 0.03 92 1009.1
20260505152030 52 10 2.6 5.2 0.05 0.00 0.02 91 1009.2
20260505151022 52 14 2.6 7.0 0.00 0.00 0.01 91 1009.2
20260505125029 52 23 3.5 7.0 0.00 0.00 0.01 89 1010.0
20260505124011 52 352 5.2 7.8 0.00 0.00 0.01 89 1010.0
20260505123004 52 3 2.6 5.2 0.00 0.00 0.01 90 1010.1
20260505122057 52 32 2.6 7.0 0.00 0.00 0.01 90 1010.2
20260505121050 52 356 1.7 6.1 0.00 0.00 0.01 91 1010.2
20260505120043 52 24 3.5 3.5 0.00 0.00 0.01 91 1010.1
20260505115036 52 12 1.7 7.8 0.00 0.00 0.01 91 1010.1
20260505114029 52 18 6.1 7.8 0.00 0.00 0.01 91 1010.2
20260505113014 51 13 3.5 8.7 0.00 0.00 0.01 91 1010.3
20260505112006 51 19 5.2 6.1 0.00 0.00 0.01 91 1010.3
20260505111059 51 354 3.5 7.0 0.00 0.00 0.01 91 1010.3
20260505102015 52 21 1.7 6.1 0.00 0.00 0.01 95 1010.4
20260505101100 52 7 2.6 5.2 0.00 0.00 0.01 95 1010.4
20260505100053 51 7 3.5 6.1 0.00 0.00 0.01 95 1010.4
20260505095034 51 7 3.5 5.2 0.00 0.00 0.01 95 1010.4
20260505094027 51 35 1.7 6.1 0.00 0.00 0.01 95 1010.4
20260505093012 51 20 1.7 8.7 0.00 0.00 0.01 95 1010.5
20260505092005 51 23 5.2 6.1 0.00 0.00 0.01 95 1010.6
20260505091058 51 14 1.7 7.0 0.00 0.00 0.01 95 1010.5
20260505090049 51 12 0.9 5.2 0.00 0.00 0.01 95 1010.5
20260505085042 51 358 2.6 7.0 0.00 0.00 0.01 95 1010.5
20260505084035 51 349 6.1 7.0 0.00 0.00 0.01 95 1010.6
20260505083028 51 356 3.5 7.0 0.00 0.00 0.01 95 1010.5
20260505082010 51 3 2.6 6.1 0.00 0.00 0.01 96 1010.5
20260505081003 51 359 3.5 7.0 0.00 0.00 0.01 95 1010.5
20260505080056 51 358 3.5 6.1 0.00 0.00 0.01 96 1010.4
20260505075049 51 353 3.5 6.1 0.00 0.00 0.01 96 1010.4
20260505074042 51 354 1.7 7.0 0.00 0.00 0.01 96 1010.5
20260505073035 51 353 1.7 7.8 0.00 0.00 0.01 96 1010.5
20260505072028 51 344 1.7 6.1 0.00 0.00 0.01 96 1010.5
20260505071012 51 345 2.6 5.2 0.00 0.00 0.01 96 1010.4
20260505070005 51 349 3.5 5.2 0.00 0.00 0.01 96 1010.4
20260505065056 51 1 3.5 5.2 0.00 0.00 0.01 96 1010.4
20260505064049 51 8 2.6 7.0 0.00 0.00 0.01 96 1010.4
20260505063042 52 13 3.5 3.5 0.00 0.00 0.01 96 1010.5
20260505062034 51 8 2.6 6.1 0.00 0.00 0.01 96 1010.6
20260505061027 52 355 0.0 3.5 0.00 0.00 0.01 96 1010.6
20260505060007 52 355 3.5 7.0 0.00 0.00 0.01 96 1010.7
20260505054054 52 358 4.3 7.0 0.00 0.00 0.01 96 1010.5
20260505053048 52 357 2.6 6.1 0.00 0.00 0.01 96 1010.4
20260505052040 52 9 3.5 6.1 0.00 0.00 0.01 96 1010.4
20260505051021 52 18 2.6 5.2 0.00 0.00 0.01 96 1010.3
20260505041035 53 4 0.9 5.2 0.00 0.00 0.01 96 1010.4
20260505040027 53 14 1.7 3.5 0.00 0.00 0.01 96 1010.5
20260505035010 53 15 2.6 6.1 0.00 0.00 0.01 96 1010.5
20260505034003 53 17 1.7 5.2 0.00 0.00 0.01 96 1010.4
20260505033056 53 2 1.7 7.0 0.00 0.00 0.01 96 1010.4
20260505032049 54 11 1.7 6.1 0.00 0.00 0.01 96 1010.5
20260505031042 54 357 1.7 2.6 0.00 0.00 0.01 96 1010.4
20260505030035 54 12 1.7 7.0 0.00 0.00 0.01 96 1010.4
20260505025024 54 24 3.5 7.0 0.00 0.00 0.01 96 1010.4
20260505024009 54 14 2.6 5.2 0.00 0.00 0.01 96 1010.5
20260505023003 55 4 0.9 7.8 0.00 0.00 0.01 96 1010.6
20260505022056 55 4 1.7 5.2 0.00 0.00 0.01 96 1010.6
20260505021046 55 10 0.9 6.1 0.00 0.00 0.01 96 1010.6
20260505020026 55 360 0.0 2.6 0.00 0.00 0.01 96 1010.7
20260505015015 55 1 1.7 6.1 0.00 0.00 0.01 96 1010.6
20260505014103 55 18 4.3 5.2 0.00 0.00 0.01 96 1010.7
20260505013052 55 4 2.6 5.2 0.00 0.00 0.01 96 1010.6
20260505012028 56 7 3.5 5.2 0.00 0.00 0.01 96 1010.5
20260505011017 56 352 3.5 6.1 0.00 0.00 0.01 96 1010.6
20260505010059 56 355 0.0 3.5 0.00 0.00 0.01 96 1010.8
20260505005043 56 357 0.9 3.5 0.00 0.00 0.01 96 1010.8
20260505004015 56 1 0.9 3.5 0.00 0.00 0.01 96 1010.8
20260505003102 56 5 1.7 2.6 0.00 0.00 0.01 96 1010.8
20260505002050 56 346 0.9 2.6 0.00 0.00 0.01 96 1010.9
20260505001030 56 7 0.9 2.6 0.00 0.00 0.01 96 1011.0
20260505000012 56 5 0.0 2.6 0.00 0.00 0.01 96 1011.1
20260504235058 56 7 1.7 2.6 0.00 0.00 0.01 96 1011.2
20260504234050 57 2 1.7 1.7 0.00 0.00 0.01 96 1011.1
20260504233037 57 0 0.9 1.7 0.00 0.00 0.01 96 1011.2
20260504232029 57 339 0.0 0.9 0.07 0.00 0.01 96 1011.2
20260504231021 57 331 0.0 0.0 0.00 0.00 0.00 96 1011.2
20260504230008 57 331 0.0 0.0 0.00 0.00 0.00 96 1011.4
20260504225101 57 331 0.0 0.0 0.00 0.00 0.00 96 1011.4
20260504224054 57 331 0.0 0.0 0.00 0.00 0.00 96 1011.5
20260504223047 57 331 0.0 0.0 0.00 0.00 0.00 96 1011.5
20260504222040 57 331 0.0 0.0 0.00 0.00 0.00 96 1011.7
20260504221033 57 331 0.0 0.0 0.00 0.00 0.00 96 1011.7
20260504220022 57 331 0.0 0.0 0.00 0.00 0.00 96 1011.9
20260504215008 57 331 0.0 0.0 0.00 0.00 0.34 96 1012.0
20260504214059 57 331 0.0 0.0 0.00 0.00 0.34 96 1012.0
20260504213052 57 331 0.0 0.0 0.00 0.00 0.34 96 1012.1
20260504212046 57 331 0.0 0.9 0.05 0.00 0.34 96 1012.1
20260504211039 57 335 0.9 2.6 0.00 0.00 0.33 95 1012.1
20260504210030 57 219 0.0 0.0 0.00 0.00 0.33 95 1012.1
20260504205022 57 219 0.0 0.0 0.00 0.00 0.33 95 1012.1
20260504204007 57 219 0.0 0.0 0.00 0.00 0.33 95 1012.2
20260504203100 57 236 0.0 1.7 0.00 0.00 0.33 95 1012.1
20260504202052 57 27 0.0 0.0 0.00 0.00 0.33 95 1012.1
20260504201045 57 27 0.0 0.0 0.00 0.00 0.33 95 1012.1
20260504200038 57 27 0.0 0.0 0.00 0.00 0.33 95 1012.1
20260504195031 58 27 0.0 0.0 0.00 0.00 0.33 95 1012.0
20260504194024 57 27 0.0 0.9 0.07 0.00 0.33 95 1011.9